Tracking 25701 objects as of 4-Jul-2022
HD Live streaming from Space Station
objects crossing your sky now

SL-8 DEB

Track SL-8 DEB now!
10-day predictions


NORAD ID: 10526
Int'l Code: 1977-116D
Perigee: 949.0 km
Apogee: 1,006.8 km
Inclination: 65.8 °
Period: 104.5 minutes
Semi major axis: 7348 km
RCS: 0.1839 m2 (medium)
Launch date: December 13, 1977
Source: Commonwealth of Independent States (former USSR) (CIS)
Launch site: PLESETSK MISSILE AND SPACE COMPLEX (PKMTR)

Note: This is SATELLITE DEBRIS
aabbcc
Your satellite tracking list
Your tracking list is empty




NASA's NSSDC Master Catalog

Two Line Element Set (TLE):
1 10526U 77116D   22184.36528058  .00000026  00000-0  10644-3 0  9996
2 10526  65.8345  51.2662 0039344 293.5454 239.4314 13.78071086237553
Source of the keplerian elements: AFSPC